Location: Six Mile Lake
(44.9000°N, 79.7170°W)
Time: 16:47:28
(UTC-04:00)

NOAA 18 - Pass Details

Date: 03 July 2022
Orbit: 839 x 860 km, 98.9° (Epoch: 11 August)

Event Time Altitude Azimuth Distance (km) Brightness Sun altitude
Exits shadow 23:20:15 19° 188° (S) 1,915 6.6 -16.6°
Maximum altitude 23:24:06 54° 259° (W) 1,032 5.7 -17.0°
Drops below altitude 10° 23:29:32 10° 337° (NNW) 2,503 9.0 -17.4°
Sets 23:32:00 0° 342° (NNW) 3,446 10.0 -17.6°
